Date,TemperatureHighF,TemperatureAvgF,TemperatureLowF,DewpointHighF,DewpointAvgF,DewpointLowF,HumidityHigh,HumidityAvg,HumidityLow,PressureMaxIn,PressureMinIn,WindSpeedMaxMPH,WindSpeedAvgMPH,GustSpeedMaxMPH,PrecipitationSumIn
2013-1-10,31.5,31.1,30.6,29.8,29.6,29.1,94,94,94,30.07,30.06,0,0,0,0.00
2013-1-11,35.5,29.0,25.2,30.5,26.5,23.2,94,90,79,30.28,30.06,0,0,0,0.01
2013-1-12,52.9,27.3,22.7,38.4,24.1,20.4,93,88,71,30.37,30.24,0,0,0,0.01
2013-1-13,34.2,26.7,20.5,28.0,23.2,18.6,92,87,70,30.43,30.34,0,0,0,0.00
2013-1-14,37.1,32.5,29.0,31.0,28.3,26.2,89,84,73,30.49,30.39,0,0,0,0.00
2013-1-15,41.8,34.2,28.4,33.9,29.9,26.2,91,84,71,30.63,30.49,0,0,0,0.00
2013-1-16,40.1,31.0,25.6,34.9,28.2,23.4,93,89,78,30.59,30.43,0,0,0,0.01
2013-1-17,37.8,29.9,26.3,34.9,28.0,24.3,94,93,87,30.44,30.23,0,0,0,0.00
2013-1-18,36.0,30.0,25.2,34.4,28.5,23.4,95,94,93,30.27,30.17,0,0,0,0.00
2013-1-19,34.4,30.2,28.1,32.6,28.7,26.6,95,94,93,30.32,30.26,0,0,0,0.01
2013-1-20,36.9,30.3,26.8,35.0,28.7,25.3,95,94,92,30.33,30.19,0,0,0,0.00
2013-1-21,34.7,30.1,27.0,32.9,28.7,25.5,95,94,93,30.20,30.07,0,0,0,0.01
2013-1-22,38.9,31.5,24.8,36.7,30.0,23.3,96,94,91,30.07,29.85,0,0,0,0.00
2013-1-23,44.3,40.1,35.5,39.0,35.4,30.1,94,84,69,30.08,29.78,0,0,0,0.19
2013-1-24,46.1,39.8,32.8,40.2,36.8,31.0,94,89,76,30.15,29.99,0,0,0,0.21
2013-1-25,50.9,44.2,39.2,46.6,41.7,37.5,95,91,80,30.00,29.88,0,0,0,0.30
2013-1-26,47.2,41.2,37.6,40.7,37.7,35.7,95,88,75,29.98,29.81,0,0,0,0.09
2013-1-27,41.0,39.2,38.0,38.3,37.0,35.8,93,92,89,30.01,29.94,0,0,0,0.24
2013-1-28,41.4,39.5,36.7,39.5,37.8,34.8,95,94,93,30.04,29.94,0,0,0,0.54
2013-1-29,46.1,43.3,40.3,44.3,41.8,39.0,95,94,93,30.30,30.03,0,0,0,0.50
2013-1-30,47.2,45.6,43.0,46.1,44.3,41.4,96,95,94,30.32,30.26,0,0,0,0.35
2013-1-31,49.3,46.4,45.0,46.8,44.7,43.7,95,94,90,30.33,30.23,0,0,0,0.25
2013-2-1,49.9,44.8,38.2,44.9,42.4,35.8,95,91,79,30.33,30.26,0,0,0,0.03
2013-2-2,41.9,38.8,34.2,40.6,37.3,32.9,96,94,93,30.29,30.17,0,0,0,0.00
2013-2-3,47.5,42.1,33.5,44.9,40.4,32.1,96,94,88,30.24,30.13,0,0,0,0.11
2013-2-4,51.7,45.2,41.8,45.3,42.1,40.1,95,89,75,30.14,29.80,0,0,0,0.00
2013-2-5,49.1,44.8,42.5,44.6,41.7,39.8,93,89,78,29.87,29.75,0,0,0,0.32
2013-2-6,50.9,44.3,41.4,43.2,40.2,38.6,93,85,67,29.98,29.71,0,0,0,0.11
2013-2-7,48.2,41.3,32.8,40.7,35.4,29.6,90,80,58,30.09,29.70,0,0,0,0.10
2013-2-8,43.9,38.2,32.4,39.2,34.4,30.0,94,86,73,30.19,30.09,0,0,0,0.01
2013-2-9,45.0,40.3,37.6,40.2,37.3,34.4,93,89,79,30.21,30.14,0,0,0,0.04
2013-2-10,46.3,39.5,31.7,38.9,35.6,29.9,95,86,68,30.26,30.19,0,0,0,0.00
2013-2-11,47.7,42.1,36.7,40.8,38.0,34.6,93,85,74,30.24,30.19,0,0,0,0.00
2013-2-12,48.8,45.8,42.8,45.9,43.3,39.9,94,91,84,30.27,30.17,0,0,0,0.09
2013-2-13,47.2,45.0,42.8,43.7,41.0,38.6,92,86,79,30.37,30.17,0,0,0,0.03
2013-2-14,43.4,42.9,41.8,40.7,40.2,39.1,91,90,90,30.37,30.35,0,0,0,0.00
2013-2-24,42.3,42.2,42.1,37.8,37.7,37.3,84,84,84,29.83,29.75,0,0,0,0.00
2013-2-26,42.8,42.6,42.1,34.5,34.2,33.8,74,72,70,30.11,30.02,0,0,0,0.01
2013-2-27,50.6,43.5,36.9,42.8,39.9,34.5,94,87,72,30.26,29.59,0,0,0,0.27
2013-2-28,50.4,46.4,41.9,48.7,44.7,39.9,94,94,93,30.32,30.17,0,0,0,0.33
2013-3-1,58.9,53.2,48.4,51.5,48.8,45.1,94,86,74,30.36,30.28,0,0,0,0.09
2013-3-2,56.9,48.1,38.3,48.2,43.5,35.6,92,85,69,30.28,30.06,0,0,0,0.21
2013-3-3,48.8,39.0,30.8,38.3,33.1,27.8,93,80,56,30.28,30.18,0,0,0,0.02
2013-3-4,55.1,40.0,27.5,35.8,28.2,23.7,93,67,37,30.27,29.90,0,0,0,0.00
2013-3-5,51.7,43.8,38.2,38.2,32.5,24.1,85,65,50,29.90,29.71,0,0,0,0.00
2013-3-6,44.3,40.9,37.8,40.3,37.4,33.8,93,87,79,29.89,29.55,0,0,0,0.58
2013-3-7,52.2,43.4,35.5,44.5,39.5,33.3,93,86,66,30.07,29.88,0,0,0,0.33
2013-3-8,50.8,39.7,30.6,41.0,35.2,28.6,94,85,66,30.22,30.04,0,0,0,0.00
2013-3-9,54.2,41.2,31.0,41.4,34.5,29.0,94,79,46,30.47,30.22,0,0,0,0.02
2013-3-10,47.2,41.6,34.6,42.2,37.5,30.7,90,85,81,30.47,30.40,0,0,0,0.04
2013-3-11,53.1,45.2,38.2,45.5,41.3,35.8,94,87,72,30.42,30.16,0,0,0,0.08
2013-3-12,53.8,50.9,45.7,49.2,46.9,43.3,92,87,75,30.16,30.08,0,0,0,0.02
2013-3-28,62.1,53.3,44.3,49.8,44.8,40.7,90,73,59,30.14,30.06,0,0,0,0.00
2013-3-29,64.4,51.7,41.2,49.0,43.5,38.5,91,75,49,30.24,30.13,0,0,0,0.01
2013-3-30,67.3,52.7,38.3,46.7,42.3,35.9,92,70,44,30.24,30.06,0,0,0,0.00
2013-3-31,71.5,54.4,39.8,47.8,42.9,36.8,91,68,42,30.07,29.93,0,0,0,0.00
2013-4-1,67.3,52.2,43.0,51.7,45.4,39.1,91,78,54,30.16,29.97,0,0,0,0.00
2013-4-2,55.6,51.0,47.5,48.7,45.9,43.6,88,83,77,30.20,30.14,0,0,0,0.00
2013-4-3,62.8,52.5,42.1,48.2,44.4,39.8,93,75,54,30.18,29.94,0,0,0,0.00
2013-4-4,57.2,52.2,47.9,53.6,48.1,42.8,92,86,75,29.94,29.65,0,0,0,0.26
2013-4-5,57.1,51.5,47.3,50.6,48.0,45.0,94,88,76,29.87,29.74,0,0,0,0.84
2013-4-6,52.9,47.2,43.2,47.6,44.1,40.8,93,89,78,29.94,29.71,0,0,0,0.70
2013-4-7,45.0,41.9,38.9,42.6,39.8,37.0,95,92,89,29.88,29.47,0,0,0,1.42
2013-4-8,55.6,46.5,40.7,48.8,42.7,38.8,94,87,66,30.26,29.88,0,0,0,0.06
2013-4-9,55.8,48.4,41.0,45.9,42.5,38.6,93,81,63,30.34,30.20,0,0,0,0.00
2013-4-11,46.8,44.9,42.8,40.0,38.8,37.7,82,79,77,30.21,30.18,0,0,0,0.00
2013-4-12,47.9,44.2,40.7,41.9,39.7,35.6,94,84,72,30.04,29.69,0,0,0,0.31
2013-4-13,49.3,40.9,37.1,40.6,36.3,33.0,92,84,72,29.99,29.76,0,0,0,0.39
2013-4-14,56.0,43.4,36.7,42.9,37.5,32.6,94,81,46,30.00,29.91,0,0,0,0.67
2013-4-15,60.8,43.9,36.0,44.6,37.9,33.4,94,81,53,30.16,29.93,0,0,0,0.06
2013-4-16,59.8,43.1,32.6,43.1,36.4,30.5,94,79,48,30.38,30.16,0,0,0,0.03
2013-4-17,60.1,47.3,34.4,42.4,36.4,28.0,89,68,30,30.45,30.38,0,0,0,0.00
2013-4-18,52.2,46.8,41.4,46.3,41.6,35.0,92,82,71,30.45,30.21,0,0,0,0.27
2013-4-19,54.5,50.1,47.0,51.5,47.7,44.8,94,91,87,30.21,30.06,0,0,0,0.88
2013-4-20,55.4,48.9,45.7,49.8,44.9,41.8,92,86,77,30.27,30.19,0,0,0,0.03
2013-4-21,57.4,46.8,40.0,47.9,41.6,35.9,89,82,66,30.34,30.21,0,0,0,0.14
2013-4-22,62.1,47.3,34.2,46.0,34.7,22.6,94,66,27,30.49,30.34,0,0,0,0.00
2013-4-23,63.0,49.6,34.6,40.0,33.3,28.2,88,57,29,30.40,30.23,0,0,0,0.01
2013-4-24,48.1,44.1,40.5,37.9,35.7,34.3,83,72,63,30.30,30.29,0,0,0,0.00
2013-4-25,76.0,64.9,51.3,43.6,40.7,38.1,68,43,28,30.16,30.08,0,0,0,0.00
2013-4-26,74.5,56.9,43.4,50.0,44.6,40.1,91,66,38,30.25,30.16,0,0,0,0.00
2013-4-27,55.4,52.5,50.6,49.2,43.3,36.8,88,72,55,30.22,30.16,0,0,0,0.18
2013-4-28,59.6,51.7,47.2,48.8,43.9,39.5,90,76,53,30.21,29.96,0,0,0,0.10
2013-4-29,55.8,46.5,40.0,46.2,40.7,34.8,92,81,52,30.16,29.91,0,0,0,0.35
2013-4-30,59.2,45.3,36.7,41.6,33.9,26.2,89,67,34,30.43,30.16,0,0,0,0.00
2013-5-1,67.1,49.6,33.8,42.1,33.4,29.6,88,58,30,30.56,30.42,0,0,0,0.00
2013-5-2,68.0,54.8,39.4,45.5,39.6,33.9,83,58,39,30.53,30.36,0,0,0,0.00
2013-5-3,76.7,58.7,45.0,50.0,43.6,37.5,80,59,37,30.38,30.23,0,0,0,0.00
2013-5-4,82.3,62.9,44.8,51.7,44.0,38.0,87,54,23,30.24,30.01,0,0,0,0.00
2013-5-5,88.2,66.2,48.1,52.9,44.6,39.1,79,49,22,30.02,29.81,0,0,0,0.00
2013-5-6,90.7,68.6,50.8,52.8,44.9,40.0,74,46,19,29.87,29.80,0,0,0,0.00
2013-5-7,78.1,60.5,50.8,55.3,49.6,44.6,85,69,44,30.04,29.86,0,0,0,0.00
2013-5-8,75.4,57.1,49.0,55.8,49.5,44.7,88,77,48,30.16,30.04,0,0,0,0.00
2013-5-9,76.3,58.0,48.1,56.0,50.4,45.5,91,77,45,30.22,30.14,0,0,0,0.00
2013-5-10,81.0,64.0,48.8,58.9,52.1,45.7,92,68,38,30.20,30.14,0,0,0,0.00
2013-5-11,87.3,67.3,54.4,57.8,51.8,45.0,84,60,34,30.21,30.03,0,0,0,0.00
2013-5-12,72.4,63.5,57.2,60.2,56.0,53.2,90,77,53,30.13,30.05,0,0,0,0.34
2013-5-13,66.1,56.2,46.3,58.7,51.1,41.0,92,83,66,30.19,29.94,0,0,0,0.34
2013-5-14,71.5,53.8,42.8,47.3,40.7,32.8,90,65,28,30.22,30.13,0,0,0,0.00
2013-5-15,65.7,53.7,43.7,49.0,44.4,38.0,89,72,46,30.13,30.02,0,0,0,0.08
2013-5-16,51.8,51.6,51.3,48.8,48.4,48.2,90,89,89,30.02,29.98,0,0,0,0.01
2013-5-23,54.4,51.3,47.3,47.8,46.2,44.6,91,83,75,30.00,29.96,0,0,0,0.02
2013-5-24,64.1,52.7,45.5,49.7,46.3,43.0,92,80,57,30.06,29.96,0,0,0,0.05
2013-5-25,67.5,55.5,47.9,50.3,46.6,43.9,91,74,47,30.05,29.97,0,0,0,0.00
2013-5-26,66.6,56.2,49.3,55.1,49.6,44.7,89,79,60,30.00,29.94,0,0,0,0.06
2013-5-27,63.0,55.2,48.2,57.5,51.6,45.5,93,88,81,29.98,29.72,0,0,0,0.32
2013-5-28,63.0,55.3,50.6,53.6,50.4,47.4,92,84,67,29.90,29.77,0,0,0,0.06
2013-5-29,63.0,54.2,48.1,51.8,48.1,45.8,93,80,61,29.98,29.69,0,0,0,0.14
2013-5-30,62.8,54.1,46.8,49.2,46.2,43.5,89,75,56,30.25,29.98,0,0,0,0.01
2013-5-31,74.5,57.8,48.8,49.9,46.0,41.4,89,67,35,30.34,30.24,0,0,0,0.00
2013-6-1,78.1,61.0,49.7,52.0,47.3,42.0,86,63,37,30.25,30.07,0,0,0,0.00
2013-6-2,74.0,60.6,52.9,52.0,48.6,45.1,84,66,40,30.10,30.06,0,0,0,0.02
2013-6-3,79.7,59.5,47.2,53.8,49.5,44.2,90,72,40,30.13,30.08,0,0,0,0.00
2013-6-4,83.9,65.1,49.3,58.1,51.6,45.7,89,65,34,30.13,30.06,0,0,0,0.00
2013-6-5,78.5,66.3,52.6,57.4,52.1,43.3,80,61,43,30.11,30.05,0,0,0,0.00
2013-6-6,82.3,66.2,52.0,57.9,50.9,40.7,87,61,34,30.07,30.04,0,0,0,0.00
2013-6-7,75.2,61.8,54.2,56.3,49.0,43.1,78,64,44,30.16,30.06,0,0,0,0.00
2013-6-8,74.5,60.7,53.3,52.7,49.3,45.7,78,67,46,30.20,30.11,0,0,0,0.00
2013-6-9,76.0,59.6,51.7,51.1,47.0,42.7,80,64,39,30.12,30.04,0,0,0,0.00
2013-6-10,76.9,59.9,47.9,50.1,45.5,40.6,78,61,35,30.06,29.91,0,0,0,0.00
2013-6-11,70.2,58.6,49.0,48.4,45.1,42.5,82,62,44,30.13,29.97,0,0,0,0.00
2013-6-12,68.8,59.7,50.9,50.1,46.9,42.9,83,63,47,30.16,30.12,0,0,0,0.00
2013-6-13,74.5,59.3,51.1,52.7,48.3,43.8,89,69,40,30.24,30.14,0,0,0,0.03
2013-6-14,73.6,58.9,52.7,53.6,48.3,45.5,80,69,45,30.25,30.06,0,0,0,0.00
2013-6-15,54.0,53.4,52.7,47.4,46.9,46.1,80,78,77,30.07,30.03,0,0,0,0.00
2013-6-18,77.4,64.6,58.0,49.1,47.8,44.8,69,56,33,29.98,29.91,0,0,0,0.00
2013-6-19,67.3,58.6,50.9,56.7,50.2,46.3,86,74,52,30.03,29.94,0,0,0,0.05
2013-6-20,61.4,56.2,52.7,52.7,50.2,48.0,90,81,68,30.11,29.97,0,0,0,0.18
2013-6-21,75.1,60.0,52.0,55.6,51.8,49.1,92,76,47,30.16,30.11,0,0,0,0.05
2013-6-22,85.9,65.4,49.5,60.1,52.1,46.4,92,66,34,30.14,29.88,0,0,0,0.00
2013-6-23,72.7,64.9,58.5,63.3,58.2,52.6,90,79,69,29.88,29.62,0,0,0,0.24
2013-6-24,75.1,62.2,56.2,60.2,55.6,51.7,92,80,53,29.74,29.61,0,0,0,0.21
2013-6-25,74.7,61.6,54.7,61.7,55.4,51.2,91,81,53,29.89,29.69,0,0,0,0.51
2013-6-26,73.6,63.2,55.3,61.6,56.9,52.5,93,81,61,30.09,29.87,0,0,0,0.05
2013-6-27,73.4,64.5,58.5,65.3,59.9,55.4,92,85,72,30.23,30.05,0,0,0,0.10
2013-6-28,94.3,73.8,60.1,69.1,62.4,58.0,93,70,41,30.21,30.09,0,0,0,0.00
2013-6-29,94.3,74.8,63.9,66.3,60.9,58.1,84,64,36,30.15,30.05,0,0,0,0.00
2013-6-30,97.7,77.1,60.3,67.9,62.8,57.0,90,65,33,30.06,29.91,0,0,0,0.00
2013-7-1,95.4,78.1,64.6,67.3,62.7,59.3,84,61,38,30.08,29.95,0,0,0,0.00
2013-7-2,87.1,71.5,61.2,62.6,56.8,50.2,87,62,33,30.15,30.08,0,0,0,0.00
2013-7-3,85.5,69.4,61.2,57.4,49.9,40.6,65,50,37,30.18,30.08,0,0,0,0.00
2013-7-4,76.7,63.6,57.4,57.2,52.5,47.6,83,68,49,30.16,30.06,0,0,0,0.00
2013-7-5,82.3,65.1,54.4,58.5,53.7,50.1,86,69,41,30.06,29.99,0,0,0,0.00
2013-7-6,82.4,65.6,52.9,57.9,54.1,49.4,89,69,38,30.01,29.92,0,0,0,0.00
2013-7-7,83.7,66.2,55.3,61.0,55.9,50.9,88,71,42,29.99,29.93,0,0,0,0.00
2013-7-8,85.5,66.0,55.4,59.7,54.9,50.0,84,69,40,30.12,29.99,0,0,0,0.00
2013-7-9,87.8,70.6,56.2,63.6,55.7,49.0,89,62,37,30.13,30.04,0,0,0,0.00
2013-7-10,64.6,60.2,56.7,50.4,49.7,49.0,78,68,59,30.07,30.06,0,0,0,0.00
2013-7-11,78.5,67.4,58.3,53.2,49.2,45.6,64,53,38,30.09,30.03,0,0,0,0.00
2013-7-12,69.5,59.6,52.6,54.6,48.7,43.6,86,68,54,30.12,30.02,0,0,0,0.00
2013-7-13,80.5,62.6,48.1,57.2,49.7,45.4,91,66,34,30.20,30.12,0,0,0,0.00
2013-7-14,88.0,67.5,50.6,57.5,47.9,42.6,83,53,25,30.15,30.03,0,0,0,0.00
2013-7-15,87.5,68.3,53.3,56.4,50.5,44.4,81,55,32,30.07,29.94,0,0,0,0.00
2013-7-16,88.6,72.4,55.4,60.5,53.4,45.2,74,53,34,29.94,29.83,0,0,0,0.00
2013-7-17,71.5,64.5,56.0,59.0,56.1,51.3,87,75,63,30.22,29.93,0,0,0,0.04
2013-7-18,83.2,65.7,53.8,61.0,55.8,50.5,90,72,45,30.24,30.16,0,0,0,0.00
2013-7-19,85.3,66.6,53.8,61.8,57.0,50.7,90,73,44,30.19,30.08,0,0,0,0.00
2013-7-20,83.2,65.4,56.2,61.2,56.5,52.3,88,75,45,30.11,30.00,0,0,0,0.00
2013-7-21,84.1,65.1,56.2,63.4,56.3,52.0,88,75,45,30.01,29.95,0,0,0,0.00
2013-7-22,85.7,65.7,56.3,62.4,56.4,52.3,89,74,43,30.08,29.98,0,0,0,0.00
2013-7-23,88.6,70.1,55.6,62.5,56.1,51.8,90,65,33,30.08,30.01,0,0,0,0.00
2013-7-24,89.5,71.2,56.0,62.6,53.5,41.9,84,56,30,30.08,30.03,0,0,0,0.00
2013-7-25,90.4,70.1,53.6,58.9,50.4,44.0,79,53,24,30.13,30.06,0,0,0,0.00
2013-7-26,87.3,69.9,53.6,58.8,49.4,40.1,79,51,22,30.18,30.11,0,0,0,0.00
2013-7-27,83.5,65.1,51.7,54.0,49.3,40.7,81,58,34,30.19,30.04,0,0,0,0.00
2013-7-28,76.0,60.9,50.8,57.5,51.6,46.4,88,73,50,30.06,30.00,0,0,0,0.00
2013-7-29,81.4,63.9,53.3,57.8,53.1,48.2,84,70,42,30.04,29.99,0,0,0,0.00
2013-7-30,83.5,65.2,53.6,59.9,54.8,50.1,89,71,43,30.15,30.04,0,0,0,0.00
2013-7-31,73.1,62.7,55.4,62.6,56.6,51.6,88,81,69,30.16,30.03,0,0,0,0.00
2013-8-1,67.7,60.7,55.1,58.0,54.6,51.6,90,81,70,30.10,30.05,0,0,0,0.00
2013-8-2,63.2,60.2,58.1,57.7,55.1,53.0,90,83,75,30.14,30.08,0,0,0,0.09
2013-8-3,73.3,63.8,58.1,63.5,58.5,55.4,93,83,66,30.13,30.07,0,0,0,0.03
2013-8-4,85.0,68.3,56.9,63.5,58.5,53.6,91,73,46,30.08,29.98,0,0,0,0.00
2013-8-5,90.2,71.2,57.2,67.0,57.1,52.5,91,64,30,30.04,29.97,0,0,0,0.00
2013-8-6,90.2,70.2,55.3,61.6,54.7,46.2,89,62,24,30.03,29.96,0,0,0,0.00
2013-8-7,88.6,69.4,55.3,60.4,54.6,50.1,86,62,31,30.05,29.98,0,0,0,0.00
2013-8-8,84.4,67.6,55.4,61.0,56.2,51.1,87,68,45,30.07,29.98,0,0,0,0.00
2013-8-9,82.6,69.1,56.7,62.2,56.4,51.7,87,65,44,29.99,29.89,0,0,0,0.00
2013-8-10,77.4,68.0,59.4,63.4,60.0,55.9,90,76,60,30.06,29.93,0,0,0,0.09
2013-8-11,81.2,66.8,57.2,60.8,56.2,52.1,84,70,49,30.10,30.03,0,0,0,0.00
2013-8-12,82.3,67.3,58.0,58.7,55.3,52.5,85,67,42,30.11,30.05,0,0,0,0.00
2013-8-13,85.9,67.7,54.9,60.6,54.5,50.6,88,65,33,30.13,29.96,0,0,0,0.00
2013-8-14,83.2,67.8,58.0,59.1,56.2,52.5,87,69,39,30.02,29.95,0,0,0,0.03
2013-8-15,70.9,65.7,61.6,65.4,61.9,58.3,92,87,80,30.03,29.95,0,0,0,0.11
2013-8-16,87.5,71.2,61.7,65.9,60.6,51.7,93,72,33,30.06,29.99,0,0,0,0.00
2013-8-17,81.7,69.9,60.1,64.0,57.7,52.8,79,66,49,30.12,30.05,0,0,0,0.02
2013-8-18,78.8,67.8,59.8,60.1,56.3,51.8,80,67,50,30.16,30.11,0,0,0,0.00
2013-8-19,79.6,66.8,58.1,59.5,55.0,49.6,83,67,49,30.15,30.09,0,0,0,0.00
2013-8-20,76.0,65.4,56.7,56.7,51.6,47.3,74,61,45,30.18,30.11,0,0,0,0.00
2013-8-21,81.0,66.0,51.3,56.8,51.9,45.5,85,62,44,30.12,29.97,0,0,0,0.00
2013-8-22,82.1,69.1,54.7,59.4,54.2,48.1,83,61,41,29.98,29.85,0,0,0,0.00
2013-8-23,74.5,65.7,60.3,59.5,55.8,53.0,81,71,57,29.93,29.87,0,0,0,0.00
2013-8-24,77.8,65.9,59.0,59.7,54.8,49.6,87,69,43,29.95,29.89,0,0,0,0.01
2013-8-25,71.5,62.5,53.6,56.9,53.3,47.3,85,72,58,29.96,29.90,0,0,0,0.00
2013-8-26,75.4,64.3,57.6,59.8,56.4,51.8,89,77,49,29.99,29.89,0,0,0,0.05
2013-8-27,77.8,67.4,59.4,62.6,58.4,55.7,90,74,54,29.99,29.83,0,0,0,0.01
2013-8-28,81.0,68.2,59.9,65.5,60.4,56.3,92,77,54,29.94,29.86,0,0,0,0.29
2013-8-29,76.0,66.0,62.6,67.9,62.5,60.3,93,88,74,30.06,29.88,0,0,0,1.31
2013-8-30,81.0,66.9,59.4,63.1,58.0,52.9,93,75,42,30.18,30.06,0,0,0,0.00
2013-8-31,83.5,65.6,52.7,60.1,55.8,50.3,92,73,43,30.11,29.87,0,0,0,0.00
2013-9-1,85.3,67.7,57.2,62.5,57.5,54.5,91,72,45,29.92,29.85,0,0,0,0.00
2013-9-2,84.1,68.9,58.0,60.8,56.5,52.9,85,66,43,29.99,29.90,0,0,0,0.00
2013-9-3,78.7,64.7,58.7,63.6,59.0,55.4,91,82,53,30.06,29.97,0,0,0,0.14
2013-9-4,69.5,63.0,57.2,61.9,58.3,54.0,93,85,75,30.08,30.01,0,0,0,0.02
2013-9-5,67.3,61.7,58.0,61.5,58.4,55.4,94,89,80,30.07,29.95,0,0,0,1.35
2013-9-6,72.9,63.0,58.9,64.0,59.4,56.5,94,88,71,30.14,29.97,0,0,0,1.17
2013-9-7,75.6,63.9,58.9,62.1,58.8,55.9,93,84,61,30.13,30.05,0,0,0,0.00
2013-9-8,80.6,64.7,55.3,63.2,58.5,52.9,94,81,55,30.13,30.06,0,0,0,0.02
2013-9-9,79.0,64.5,56.5,63.2,58.4,54.2,94,81,55,30.09,30.01,0,0,0,0.00
2013-9-10,82.1,65.9,55.4,64.3,59.1,52.8,94,80,54,30.01,29.92,0,0,0,0.00
2013-9-11,62.3,60.5,59.4,58.9,57.8,57.1,92,91,89,29.93,29.92,0,0,0,0.00
2013-9-12,82.4,70.1,61.0,63.8,60.1,57.0,87,72,52,29.98,29.95,0,0,0,0.00
2013-9-13,66.2,62.2,58.3,61.2,58.6,55.4,93,88,83,30.00,29.90,0,0,0,0.01
2013-9-14,72.9,63.1,58.0,65.1,59.2,55.6,92,87,74,29.91,29.75,0,0,0,0.00
2013-9-15,66.6,61.2,57.2,62.8,58.6,54.9,94,91,85,29.85,29.73,0,0,0,0.21
2013-9-16,68.4,61.3,57.6,61.6,57.4,51.5,94,87,77,29.95,29.84,0,0,0,0.01
2013-9-17,63.2,58.0,53.8,53.5,51.3,48.9,88,78,65,29.94,29.88,0,0,0,0.00
2013-9-18,69.5,58.8,50.8,55.0,51.4,46.4,92,78,53,30.08,29.94,0,0,0,0.00
2013-9-19,80.3,59.6,45.4,58.0,49.8,43.2,94,72,45,30.05,29.79,0,0,0,0.00
2013-9-20,72.9,60.3,50.9,56.0,51.0,45.9,91,73,47,29.80,29.63,0,0,0,0.05
2013-9-21,69.1,60.5,54.0,56.9,53.0,48.4,92,78,49,29.74,29.67,0,0,0,0.00
2013-9-22,60.8,56.1,52.7,56.4,52.2,50.1,92,87,76,29.77,29.60,0,0,0,0.40
2013-9-23,60.3,54.7,48.6,55.5,51.3,46.7,93,89,76,29.97,29.76,0,0,0,0.25
2013-9-24,62.3,52.4,47.2,52.0,48.0,45.5,94,86,64,29.96,29.85,0,0,0,0.05
2013-9-25,57.6,50.2,45.0,51.0,46.8,42.8,93,88,69,30.03,29.85,0,0,0,0.07
2013-9-26,60.5,49.5,40.9,51.1,45.0,39.2,95,85,64,30.13,30.01,0,0,0,0.01
2013-9-27,56.0,52.1,47.7,52.4,48.8,44.8,92,89,81,30.13,29.85,0,0,0,0.06
2013-9-28,60.1,54.2,50.2,57.5,52.0,47.6,95,93,89,29.85,29.37,0,0,0,2.02
2013-9-29,53.3,51.4,49.9,51.2,48.6,46.5,94,90,83,29.58,29.17,0,0,0,0.64
2013-9-30,55.1,49.8,46.8,51.7,47.1,43.7,94,90,85,29.93,29.46,0,0,0,0.87
2013-10-1,56.2,48.9,44.8,50.9,46.1,42.8,94,90,79,30.11,29.91,0,0,0,0.31
2013-10-2,55.3,49.9,47.0,49.8,46.7,44.7,93,89,80,30.16,30.04,0,0,0,0.29
2013-10-3,56.3,49.3,42.1,49.3,45.9,40.2,94,89,73,30.43,30.16,0,0,0,0.03
2013-10-4,62.5,47.8,37.4,51.4,43.5,35.7,95,86,61,30.46,30.34,0,0,0,0.00
2013-10-5,68.8,53.2,42.1,62.2,46.2,40.2,95,79,45,30.34,30.13,5,0,5,0.00
2013-10-6,72.7,56.0,45.0,54.9,46.8,42.4,92,74,40,30.13,29.91,6,0,6,0.01
2013-10-7,58.9,53.2,49.7,50.1,47.8,44.0,92,82,62,30.01,29.91,7,1,7,0.15
2013-10-8,54.0,49.7,41.9,48.1,45.1,39.5,91,84,69,30.07,29.96,5,0,5,0.27
2013-10-9,57.4,46.4,38.9,47.2,41.8,36.5,93,85,67,30.09,29.95,2,0,2,0.00
2013-10-10,59.2,50.2,42.7,48.8,45.4,40.0,91,84,66,30.07,29.93,3,0,3,0.03
2013-10-11,56.5,51.1,47.2,51.6,47.6,44.7,92,88,78,30.13,30.06,2,0,2,0.15
2013-10-12,56.0,49.4,43.6,48.9,45.9,41.1,94,88,74,30.20,30.06,3,0,5,0.11
2013-10-13,55.3,46.0,40.0,48.8,43.1,38.1,95,90,78,30.35,30.20,2,0,2,0.00
2013-10-14,58.0,45.1,36.7,49.6,41.5,34.8,95,88,66,30.40,30.34,4,0,4,0.00
2013-10-15,58.7,46.9,38.2,49.9,43.2,36.3,95,88,69,30.37,30.16,4,0,4,0.00
2013-10-16,53.3,47.0,41.4,48.1,44.2,39.5,95,90,82,30.19,30.13,4,0,4,0.01
2013-10-17,55.1,47.9,42.7,48.5,44.9,40.6,94,89,78,30.26,30.19,3,0,3,0.00
2013-10-18,56.9,45.5,39.2,51.2,43.1,37.4,96,91,81,30.23,30.14,3,0,3,0.00
2013-10-19,49.3,45.6,42.5,47.9,44.0,40.6,96,94,92,30.18,30.12,2,0,2,0.00
2013-10-20,44.8,44.4,44.1,42.7,42.4,41.9,93,92,92,30.15,30.14,1,0,1,0.00
2013-10-21,53.1,46.2,42.3,48.4,43.6,40.4,94,91,83,30.15,30.09,3,0,3,0.00
2013-10-22,55.1,46.9,42.7,50.3,44.5,41.0,94,91,83,30.11,30.02,2,0,2,0.01
2013-10-23,56.3,46.9,41.6,51.7,44.6,39.8,95,92,84,30.04,29.98,2,0,2,0.00
2013-10-24,50.9,46.5,41.4,49.1,44.8,39.5,95,94,93,30.12,30.00,2,0,2,0.02
2013-10-25,52.9,47.6,41.6,50.3,45.4,39.6,94,92,89,30.29,30.11,2,0,2,0.00
2013-10-26,50.2,46.9,40.9,46.3,44.1,38.8,94,90,85,30.32,30.17,3,0,3,0.00
2013-10-27,51.8,46.7,41.4,48.3,44.0,39.5,93,90,86,30.18,29.90,6,0,6,0.04
2013-10-28,55.4,47.0,40.9,42.4,37.9,33.1,93,72,46,29.94,29.87,7,1,7,0.00
2013-10-29,54.5,42.2,33.7,40.3,34.6,30.2,88,76,50,30.02,29.93,3,0,3,0.00
2013-10-30,56.5,46.4,35.8,46.1,40.0,32.2,89,79,65,30.13,30.01,4,0,4,0.00
2013-10-31,54.0,50.2,47.0,50.5,46.7,42.1,90,88,78,30.25,30.08,3,0,3,0.04
2013-11-1,61.9,54.1,49.5,53.8,49.2,46.6,92,84,67,30.26,29.84,2,0,3,0.00
2013-11-2,52.6,49.2,43.9,48.9,43.7,38.3,91,82,68,29.88,29.51,11,2,11,0.46
2013-11-3,51.8,43.9,37.8,41.7,38.1,33.4,87,80,58,30.09,29.88,5,0,5,0.00
2013-11-4,49.0,41.7,34.0,40.8,36.2,31.5,92,82,63,30.17,30.03,4,0,4,0.02
2013-11-5,53.3,47.6,43.2,49.1,43.2,39.1,91,85,75,30.24,29.98,6,0,6,0.11
2013-11-6,52.9,47.0,42.1,46.8,43.2,39.3,91,86,76,30.30,30.01,4,0,4,0.11
2013-11-7,49.5,47.4,46.3,45.4,44.4,43.6,91,89,84,30.01,29.72,7,1,7,1.11
2013-11-8,52.9,47.6,41.6,45.5,42.7,38.3,89,83,71,30.15,29.97,4,0,4,0.00
2013-11-9,50.2,43.8,37.1,45.0,40.5,34.1,91,88,80,30.13,30.05,2,0,2,0.07
2013-11-10,50.2,46.1,42.8,45.6,42.6,39.5,90,87,83,30.13,30.05,4,0,4,0.00
2013-11-11,60.7,48.4,38.9,51.3,42.0,36.2,91,79,60,30.15,29.98,5,0,5,0.01
2013-11-12,58.5,52.7,48.4,52.8,47.2,41.4,88,82,65,30.37,30.02,4,0,4,0.12
2013-11-13,49.7,49.0,48.2,45.9,45.2,44.6,88,87,86,30.37,30.35,2,0,2,0.00
2013-11-14,49.7,44.8,39.6,45.1,41.3,36.6,89,88,85,30.28,30.03,2,0,2,0.21
2013-11-15,46.4,43.2,40.1,42.9,39.9,37.2,89,88,85,30.04,29.33,7,1,7,0.23
2013-11-16,45.7,42.7,37.4,41.5,37.6,34.2,88,82,73,29.76,29.35,6,0,6,0.00
2013-11-17,49.3,45.4,41.6,44.7,41.2,36.7,87,85,81,29.90,29.76,7,1,7,0.73
2013-11-18,51.5,48.4,45.7,46.8,44.4,42.1,87,86,84,29.90,29.56,5,0,5,1.08
2013-11-19,52.4,43.4,36.0,47.8,37.8,24.9,86,81,62,30.04,29.56,6,0,6,0.17
2013-11-20,41.0,33.6,27.7,30.6,26.6,23.2,86,76,59,30.46,30.04,5,0,5,0.01
2013-11-21,41.8,31.0,24.7,30.6,24.3,21.3,88,77,47,30.63,30.46,2,0,3,0.00
2013-11-22,44.8,32.6,25.4,29.8,24.8,21.5,86,74,47,30.60,30.41,5,0,5,0.01
2013-11-23,48.8,36.4,28.4,34.7,28.2,22.8,82,73,50,30.41,30.16,4,0,4,0.00
2013-11-24,48.2,36.5,28.6,38.9,31.2,24.8,87,81,67,30.23,30.12,2,0,2,0.00
2013-11-25,53.3,40.6,32.0,41.7,33.9,28.1,86,77,60,30.29,30.22,2,0,2,0.00
2013-11-29,47.2,45.5,44.5,42.6,41.2,39.3,86,85,82,30.31,30.23,2,0,2,0.04
2013-11-30,49.5,46.6,42.1,44.5,42.0,38.2,87,84,80,30.32,30.09,3,0,3,0.19
2013-12-1,52.2,49.6,43.4,47.2,44.3,36.1,86,82,75,30.09,29.76,11,2,11,0.13
2013-12-2,43.2,38.4,34.4,36.5,32.4,29.8,85,79,68,30.03,29.80,6,0,6,0.06
2013-12-3,37.4,32.6,27.4,31.0,25.4,22.2,85,75,60,30.28,30.03,5,1,5,0.01
2013-12-4,35.6,27.2,22.7,25.7,21.6,19.1,87,80,63,30.32,30.24,4,0,4,0.00
2013-12-5,33.5,25.5,19.3,23.3,18.9,14.5,85,76,60,30.28,30.14,2,0,2,0.00
2013-12-6,29.9,24.1,16.6,15.3,10.5,6.9,68,56,41,30.18,30.08,4,0,4,0.00
2013-12-7,27.5,18.5,13.0,12.1,6.9,3.1,77,62,36,30.38,30.17,5,0,5,0.00
2013-12-8,30.6,21.7,14.0,15.8,12.0,5.8,77,66,49,30.54,30.37,3,0,4,0.00
2013-12-9,32.8,26.7,17.6,23.4,18.4,11.5,80,71,61,30.53,30.46,1,0,1,0.00
2013-12-10,39.2,33.6,29.5,32.8,28.3,23.4,86,80,76,30.47,30.39,0,0,1,0.00
2013-12-11,62.8,32.6,26.8,54.2,27.9,23.0,87,83,62,30.39,30.14,2,0,2,0.01
2013-12-12,30.8,30.0,29.2,26.9,26.3,25.5,87,86,86,30.14,30.09,1,0,1,0.00
2013-12-14,47.5,45.9,45.4,41.1,40.5,40.1,82,81,78,30.36,30.33,4,0,4,0.00
2013-12-15,51.7,47.6,44.6,45.5,42.5,40.0,85,82,80,30.43,30.29,4,0,4,0.00
2013-12-16,46.4,42.6,36.4,41.0,37.9,32.2,85,83,81,30.48,30.24,2,0,2,0.00
2013-12-17,44.3,39.8,34.9,39.0,35.3,30.5,86,84,81,30.24,30.09,4,0,4,0.00
2013-12-18,43.7,39.7,31.7,38.6,34.6,27.2,83,82,80,30.13,30.00,3,0,3,0.00
2013-12-19,37.1,31.0,26.6,31.0,26.3,22.2,85,82,77,30.32,30.11,1,0,3,0.00
2013-12-20,41.9,34.8,28.4,37.1,30.1,24.0,84,83,82,30.17,29.71,2,0,2,0.00
2013-12-21,44.5,42.5,40.0,38.5,37.0,34.6,83,81,79,30.15,29.82,2,0,2,0.00
2013-12-22,48.4,46.4,43.7,40.6,38.8,37.0,79,75,70,30.29,30.13,3,0,3,0.00
2013-12-23,51.5,47.2,42.1,42.5,37.4,32.8,72,69,66,30.49,30.13,8,1,8,0.00
2013-12-24,47.0,39.1,31.7,37.9,30.0,22.7,72,69,67,30.59,30.48,2,0,2,0.00
2013-12-25,41.8,34.5,30.1,33.2,25.4,21.4,72,69,67,30.51,30.35,2,0,2,0.00
2013-12-26,44.6,36.0,31.9,35.7,26.4,22.1,72,68,66,30.37,30.17,2,0,2,0.00
2013-12-27,43.6,38.4,32.2,32.8,27.4,22.5,67,64,62,30.34,30.11,4,0,4,0.00
2013-12-28,47.2,41.4,33.7,36.0,28.9,21.8,66,61,57,30.50,30.34,3,0,3,0.00
2013-12-29,43.2,36.9,31.7,30.2,23.7,20.2,62,59,54,30.45,30.27,1,0,1,0.00
2013-12-30,44.6,39.7,34.6,29.3,22.7,19.4,56,50,45,30.29,30.10,3,0,3,0.00
2013-12-31,45.7,42.3,36.4,26.7,21.4,14.1,52,43,39,30.36,30.17,2,0,2,0.00
2014-1-1,43.9,38.7,33.5,19.0,13.2,10.7,41,35,29,30.38,30.22,2,0,2,0.00
2014-1-2,47.2,43.8,40.3,23.2,9.8,-8.4,39,25,10,30.23,29.90,5,0,5,0.00